Cut Bank, MT

6:05 AM MDT on July 24, 2017 (GMT -0600)
Cut Bank Municipal

Weather History for KCTB - June, 2013

Change the Weather History Date:

Saturday, June 1, 2013

  Actual Average Record
Temperature  
Mean Temperature 53 °F 54 °F  
Max Temperature 67 °F 67 °F 91 °F (1986)
Min Temperature 39 °F 42 °F 31 °F (1928)
Degree Days  
Heating Degree Days 12 11  
Month to date heating degree days 12 11  
Since 1 June heating degree days 12 11  
Since 1 July heating degree days 8044 8299  
Cooling Degree Days 0 0  
Month to date cooling degree days 0 0  
Year to date cooling degree days 2 2  
Since 1 June cooling degree days 0 0  
Growing Degree Days 4 (Base 50)    
Moisture  
Dew Point 37 °F    
Average Humidity 56    
Maximum Humidity 83    
Minimum Humidity 29    
Precipitation  
Precipitation 0.00 in 0.10 in 0.69 in (1993)
Month to date precipitation 0.00 0.10  
Year to date precipitation 3.87 3.74  
Snow  
Snow 0.00 in - - ()
Snow Depth 0.00 in    
Sea Level Pressure  
Sea Level Pressure 30.14 in    
Wind  
Wind Speed 5 mph (West)    
Max Wind Speed 13 mph    
Max Gust Speed 17 mph    
Visibility 10 miles    
Events      
T = Trace of Precipitation, MM = Missing Value Source: NWS Daily Summary

Daily Weather History Graph

Daily Weather History Graph

Search for Another Location

Airport or City:

Trip Planner

Search our weather history database for the weather conditions in past years. The results will help you decide how hot, cold, wet, or windy it might be!

Date:

Astronomy

Jun. 01, 2013 Rise Set
Actual Time 5:31 AM MDT 9:23 PM MDT
Civil Twilight 4:50 AM MDT 10:04 PM MDT
Nautical Twilight 3:54 AM MDT 11:01 PM MDT
Astronomical Twilight 2:28 AM MDT 12:29 AM MDT
Moon 2:01 AM MDT (6/1) 2:27 PM MDT (6/1)
Length of Visible Light 17h 14m
Length of Day
15h 52m
Last Quarter, 40% of the Moon is Illuminated
Jun 1
Last Quarter
Jun 8
New
Jun 16
First Quarter
Jun 23
Full
Jun 29
Last Quarter

Hourly Weather History & Observations

Time (MDT) Temp. Windchill Dew Point Humidity Pressure Visibility Wind Dir Wind Speed Gust Speed Precip Events Conditions
12:56 AM 48.0 °F - 43.0 °F 83% 30.25 in 10.0 mi WNW 5.8 mph - N/A   Overcast
1:56 AM 48.0 °F - 42.1 °F 80% 30.25 in 10.0 mi West 5.8 mph - N/A   Overcast
2:56 AM 46.0 °F 43.1 °F 39.0 °F 76% 30.25 in 10.0 mi West 5.8 mph - N/A   Overcast
3:56 AM 43.0 °F 38.8 °F 37.9 °F 82% 30.25 in 10.0 mi WSW 6.9 mph - N/A   Mostly Cloudy
4:56 AM 42.1 °F - 37.0 °F 82% 30.25 in 10.0 mi Calm Calm - N/A   Clear
5:56 AM 42.1 °F - 37.0 °F 82% 30.25 in 10.0 mi Calm Calm - N/A   Clear
6:56 AM 45.0 °F - 39.0 °F 80% 30.24 in 10.0 mi Calm Calm - N/A   Clear
7:56 AM 48.0 °F - 39.9 °F 74% 30.22 in 10.0 mi Calm Calm - N/A   Clear
8:56 AM 52.0 °F - 39.9 °F 63% 30.21 in 10.0 mi SSW 3.5 mph - N/A   Clear
9:56 AM 57.0 °F - 37.9 °F 49% 30.19 in 10.0 mi WSW 5.8 mph - N/A   Clear
10:56 AM 59.0 °F - 34.0 °F 39% 30.18 in 10.0 mi Variable 3.5 mph - N/A   Clear
11:56 AM 62.1 °F - 37.0 °F 39% 30.15 in 10.0 mi SSW 11.5 mph - N/A   Partly Cloudy
12:56 PM 63.0 °F - 37.0 °F 38% 30.13 in 10.0 mi SW 4.6 mph - N/A   Scattered Clouds
1:56 PM 62.1 °F - 35.1 °F 37% 30.12 in 10.0 mi Variable 5.8 mph - N/A   Mostly Cloudy
2:56 PM 66.0 °F - 35.1 °F 32% 30.09 in 10.0 mi SSW 11.5 mph - N/A   Mostly Cloudy
3:56 PM 66.0 °F - 34.0 °F 30% 30.07 in 10.0 mi Variable 6.9 mph - N/A   Clear
4:56 PM 64.0 °F - 32.0 °F 30% 30.08 in 10.0 mi Variable 5.8 mph - N/A   Clear
5:56 PM 64.0 °F - 34.0 °F 33% 30.06 in 10.0 mi Calm Calm - N/A   Clear
6:56 PM 63.0 °F - 34.0 °F 34% 30.04 in 10.0 mi Calm Calm - N/A   Partly Cloudy
7:56 PM 60.1 °F - 37.0 °F 42% 30.04 in 10.0 mi WNW 9.2 mph - N/A   Clear
8:56 PM 59.0 °F - 37.9 °F 46% 30.02 in 10.0 mi NW 8.1 mph - N/A   Overcast
9:56 PM 55.9 °F - 39.9 °F 55% 30.01 in 10.0 mi WNW 4.6 mph - N/A   Overcast
10:56 PM 55.9 °F - 37.9 °F 51% 30.00 in 10.0 mi WNW 8.1 mph - N/A   Overcast
11:56 PM 55.9 °F - 37.9 °F 51% 29.98 in 10.0 mi WNW 6.9 mph - N/A   Overcast